[[{"header":{"parameterUnit":"m.s-1","parameterCategory":2,"la1":30.2991,"la2":30.254,"lo1":-89.0895,"lo2":-89.0444,"dy":0.0017,"dx":0.0017,"nx":28,"ny":28,"refTime":"2023-10-11T09:00:00:Z","depth":"0","parameterNumber":2,"parameterNumberName":"U-component_of_CURRENTS"},"data":[0,0,0,0,0,0,0,0,0,0,0,0,0,0,0,0,0,0,0,0,0,0,0,0,0,0,0,0,0,0,0,0,0,0,0,0,0,0,0,0,0,0,0,0,0,0,0,0,0,0,0,0,0,0,0,0,0,0,-0.2929,-0.293,0,-0.2903,-0.2902,-0.2901,-0.2886,-0.2886,-0.2887,-0.2887,-0.2824,-0.2822,-0.282,0,0,0,0,0,0,0,0,0,0,0,0,0,-0.2886,-0.2887,-0.2929,-0.293,-0.293,-0.2903,-0.2902,-0.2901,-0.2886,-0.2886,-0.2887,-0.2887,-0.2825,-0.2822,-0.282,0,0,0,0,0,0,0,0,0,0,0,0,0,-0.2882,-0.2888,-0.2929,-0.2923,-0.2922,-0.2903,-0.2902,-0.2901,-0.2886,-0.2886,-0.2887,-0.2888,-0.2825,-0.2822,-0.2819,-0.2787,0,0,-0.281,-0.2808,0,0,0,0,0,0,0,0,-0.2882,-0.2883,-0.2924,-0.2923,-0.2923,-0.2903,-0.2864,-0.2863,-0.2886,-0.2894,-0.2887,-0.2888,-0.285,-0.2845,-0.2831,-0.2784,-0.2781,-0.2809,-0.2807,-0.2806,-0.2805,0,0,0,0,0,0,0,-0.2883,-0.2884,-0.2913,-0.2924,-0.2923,-0.2894,-0.2894,-0.2863,-0.2864,-0.2893,-0.2894,-0.2899,-0.2849,-0.2834,-0.283,-0.278,-0.2809,-0.2807,-0.2805,-0.2804,-0.2746,-0.2746,0,0,0,0,0,0,-0.2901,-0.2885,-0.2914,-0.2913,-0.291,-0.2895,-0.2895,-0.2904,-0.2865,-0.2862,-0.2898,-0.2898,-0.2839,-0.2833,-0.2827,-0.2818,-0.2806,-0.2803,-0.2801,-0.2745,-0.2746,-0.2746,0,0,0,0,0,0,-0.29,-0.2904,-0.2916,-0.2902,-0.2902,-0.2896,-0.2906,-0.2904,-0.2894,-0.287,-0.2865,-0.2893,-0.284,-0.2832,-0.2806,-0.2815,-0.2802,-0.2799,-0.2745,-0.2745,-0.2746,-0.278,0,0,0,0,0,0,-0.2899,-0.2903,-0.2906,-0.2904,-0.2904,-0.2916,-0.2906,-0.2903,-0.2899,-0.2898,-0.2864,-0.2858,-0.284,-0.2811,-0.2803,-0.281,-0.2797,-0.2744,-0.2745,-0.2746,-0.2778,-0.2781,-0.2784,0,0,0,0,0,-0.2897,-0.2905,-0.2907,-0.291,-0.2912,-0.2917,-0.2913,-0.2907,-0.2898,-0.2898,-0.2873,-0.286,-0.2811,-0.2808,-0.2799,-0.2805,-0.2744,-0.2745,-0.2746,-0.2777,-0.2781,-0.2784,0,0,0,0,0,0,-0.2885,-0.2905,-0.2906,-0.2919,-0.2923,-0.2916,-0.2912,-0.2907,-0.2885,-0.2879,-0.2853,-0.2845,-0.2831,-0.281,-0.2809,-0.2792,-0.2779,-0.2778,-0.2806,-0.2809,-0.2812,-0.2817,-0.2794,0,0,0,0,0,-0.2886,-0.2898,-0.291,-0.2919,-0.2922,-0.2915,-0.2912,-0.2911,-0.2897,-0.2888,-0.2864,-0.2841,-0.2825,-0.2812,-0.2792,-0.2771,-0.2772,-0.2773,-0.2776,-0.2778,-0.2777,-0.2784,-0.2787,-0.2749,-0.2749,-0.2749,0,0,-0.2885,-0.2896,-0.2902,-0.2917,-0.2915,-0.2918,-0.2913,-0.2915,-0.2913,-0.2883,-0.2862,-0.2847,-0.2822,-0.2808,-0.28,-0.2792,-0.2795,-0.2779,-0.2782,-0.2779,-0.2785,-0.2789,-0.2792,-0.2749,-0.2749,-0.2749,0,0,-0.2885,-0.2897,-0.2905,-0.2911,-0.2919,-0.2918,-0.2922,-0.2917,-0.2911,-0.2892,-0.2878,-0.2868,-0.2829,-0.2823,-0.2812,-0.2817,-0.2812,-0.2814,-0.2827,-0.2834,-0.2837,-0.284,-0.2867,-0.2872,-0.2813,-0.2813,-0.2813,0,-0.2883,-0.2895,-0.2906,-0.2913,-0.2918,-0.2921,-0.2926,-0.2919,-0.2905,-0.2902,-0.2891,-0.2857,-0.2838,-0.2832,-0.2837,-0.2824,-0.2832,-0.2816,-0.2838,-0.2841,-0.2843,-0.287,-0.2875,-0.2815,-0.2815,-0.2814,-0.2814,0,-0.2884,-0.2896,-0.29,-0.2913,-0.2919,-0.2925,-0.293,-0.2928,-0.2919,-0.2913,-0.2905,-0.288,-0.2863,-0.2862,-0.2846,-0.2857,-0.2861,-0.2845,-0.2831,-0.2849,-0.2876,-0.2881,-0.2817,-0.2817,-0.2816,-0.2816,0,0,-0.2875,-0.2899,-0.2898,-0.2909,-0.2921,-0.2929,-0.2931,-0.2937,-0.2945,-0.2925,-0.2929,-0.2905,-0.2899,-0.2887,-0.2876,-0.288,-0.291,-0.2869,-0.2869,-0.2899,-0.2943,-0.3013,-0.3025,-0.2897,-0.2898,-0.2898,-0.2963,0,-0.2872,-0.289,-0.2898,-0.2912,-0.2925,-0.2934,-0.294,-0.2946,-0.2947,-0.2951,-0.2936,-0.2931,-0.2907,-0.2905,-0.2905,-0.2903,-0.292,-0.2895,-0.2917,-0.2918,-0.2981,-0.3032,-0.3145,-0.3218,-0.2968,-0.2968,-0.2969,0,-0.2864,-0.2882,-0.2896,-0.2927,-0.2932,-0.2937,-0.2958,-0.2963,-0.2974,-0.2974,-0.297,-0.2963,-0.296,-0.294,-0.295,-0.2935,-0.2944,-0.2946,-0.2949,-0.3003,-0.2997,-0.3154,-0.3235,-0.3251,-0.2976,-0.2975,-0.2975,0,-0.2853,-0.2878,-0.2891,-0.2899,-0.2931,-0.2936,-0.2948,-0.2966,-0.2987,-0.2989,-0.301,-0.2995,-0.3001,-0.2993,-0.2999,-0.2973,-0.3026,-0.2989,-0.3068,-0.3073,-0.3168,-0.3181,-0.327,-0.3013,-0.3012,-0.3012,-0.3012,0,-0.2849,-0.2859,-0.2887,-0.2897,-0.2919,-0.2934,-0.2958,-0.297,-0.3002,-0.3043,-0.302,-0.3057,-0.3014,-0.304,-0.3026,-0.3078,-0.3049,-0.309,-0.3099,-0.3186,-0.3199,-0.3214,-0.3176,-0.3015,-0.3014,-0.3014,-0.3013,0,-0.283,-0.285,-0.2871,-0.2903,-0.2915,-0.2926,-0.2974,-0.3,-0.3025,-0.3081,-0.3086,-0.311,-0.3147,-0.3136,-0.3142,-0.3138,-0.317,-0.3188,-0.3306,-0.3328,-0.3404,-0.3363,-0.3309,-0.3309,-0.328,-0.3283,-0.3284,0,-0.282,-0.2826,-0.2869,-0.2886,-0.2899,-0.2925,-0.2955,-0.2998,-0.3039,-0.3128,-0.3162,-0.3219,-0.3301,-0.3345,-0.3358,-0.3388,-0.3282,-0.3458,-0.3424,-0.3449,-0.3409,-0.3255,-0.3246,-0.357,-0.3574,-0.3577,-0.358,0,-0.2785,-0.2797,-0.2812,-0.2865,-0.2897,-0.2948,-0.2995,-0.3051,-0.3121,-0.3208,-0.3341,-0.3426,-0.3514,-0.3634,-0.3649,-0.3624,-0.3454,-0.3526,-0.3522,-0.3629,-0.3496,-0.3489,-0.3485,-0.3609,-0.3606,-0.3604,-0.3603,-0.3601,-0.2736,-0.2746,-0.2772,-0.2814,-0.2877,-0.2965,-0.2977,-0.3122,-0.3242,-0.3426,-0.3493,-0.3729,-0.383,-0.3907,-0.3898,-0.391,-0.37,-0.3834,-0.378,-0.3618,-0.3624,-0.3697,-0.3842,-0.3841,-0.3839,-0.3838,-0.3837,0,-0.2652,-0.2676,-0.2721,-0.2788,-0.284,-0.2885,-0.2986,-0.3022,-0.3202,-0.3559,-0.3742,-0.413,-0.4238,-0.4287,-0.4319,-0.4217,-0.407,-0.4061,-0.3892,-0.3871,-0.3957,-0.3983,-0.4203,-0.4203,-0.4203,-0.4203,-0.4203,-0.4203,-0.26,-0.2599,-0.2633,-0.2699,-0.2755,-0.276,-0.2787,-0.2935,-0.3163,-0.3614,-0.4046,-0.4354,-0.43,-0.4575,-0.4508,-0.4356,-0.4178,-0.405,-0.3937,-0.4053,-0.4027,-0.4003,-0.4021,-0.4245,-0.4245,-0.3867,-0.3865,-0.3863]},{"header":{"parameterUnit":"m.s-1","parameterCategory":2,"la1":30.2991,"la2":30.254,"lo1":-89.0895,"lo2":-89.0444,"dy":0.0017,"dx":0.0017,"nx":28,"ny":28,"refTime":"2023-10-11T09:00:00:Z","depth":"0","parameterNumber":3,"parameterNumberName":"V-component_of_CURRENTS"},"data":[0,0,0,0,0,0,0,0,0,0,0,0,0,0,0,0,0,0,0,0,0,0,0,0,0,0,0,0,0,0,0,0,0,0,0,0,0,0,0,0,0,0,0,0,0,0,0,0,0,0,0,0,0,0,0,0,0,0,-0.0706,-0.0706,0,-0.0623,-0.0622,-0.0622,-0.0592,-0.0592,-0.0592,-0.0593,-0.055,-0.0548,-0.0547,0,0,0,0,0,0,0,0,0,0,0,0,0,-0.0807,-0.0806,-0.0707,-0.0705,-0.0704,-0.0623,-0.0622,-0.0621,-0.0592,-0.0592,-0.0593,-0.0593,-0.055,-0.0549,-0.0547,0,0,0,0,0,0,0,0,0,0,0,0,0,-0.0748,-0.0805,-0.0707,-0.0679,-0.0676,-0.0624,-0.0622,-0.0621,-0.0592,-0.0592,-0.0593,-0.0593,-0.0551,-0.0549,-0.0547,-0.0527,0,0,-0.054,-0.054,0,0,0,0,0,0,0,0,-0.0752,-0.0745,-0.0685,-0.0681,-0.0677,-0.0618,-0.0642,-0.0591,-0.0592,-0.0625,-0.0593,-0.0593,-0.0575,-0.0571,-0.0555,-0.0525,-0.0523,-0.054,-0.0539,-0.0538,-0.0538,0,0,0,0,0,0,0,-0.0756,-0.0748,-0.0674,-0.0683,-0.0679,-0.066,-0.0652,-0.0632,-0.06,-0.0622,-0.0619,-0.0609,-0.0574,-0.0557,-0.0554,-0.0522,-0.054,-0.0538,-0.0537,-0.0536,-0.0499,-0.0499,0,0,0,0,0,0,-0.0766,-0.0752,-0.0677,-0.0672,-0.0715,-0.0658,-0.0649,-0.0637,-0.06,-0.0594,-0.0608,-0.0608,-0.0561,-0.0557,-0.0553,-0.0535,-0.0538,-0.0536,-0.0535,-0.0499,-0.0499,-0.05,0,0,0,0,0,0,-0.0768,-0.076,-0.068,-0.071,-0.0698,-0.0656,-0.0642,-0.0635,-0.0621,-0.0589,-0.0584,-0.0601,-0.0561,-0.0556,-0.0537,-0.0533,-0.0535,-0.0533,-0.0499,-0.0499,-0.0499,-0.0495,0,0,0,0,0,0,-0.0771,-0.0761,-0.076,-0.071,-0.0697,-0.0653,-0.0642,-0.0633,-0.0613,-0.0611,-0.0581,-0.0577,-0.0561,-0.054,-0.0535,-0.053,-0.0532,-0.0498,-0.0499,-0.0499,-0.0495,-0.0495,-0.0495,0,0,0,0,0,-0.0775,-0.0777,-0.0761,-0.0752,-0.0695,-0.0653,-0.0645,-0.0616,-0.0613,-0.0605,-0.0586,-0.0578,-0.054,-0.0538,-0.0532,-0.0527,-0.0498,-0.0499,-0.0499,-0.0495,-0.0495,-0.0495,0,0,0,0,0,0,-0.0825,-0.0773,-0.0754,-0.0741,-0.07,-0.0648,-0.064,-0.0619,-0.0596,-0.0599,-0.0573,-0.0567,-0.0552,-0.0543,-0.0542,-0.0521,-0.0521,-0.052,-0.052,-0.052,-0.052,-0.0526,-0.053,0,0,0,0,0,-0.0833,-0.0817,-0.0763,-0.0751,-0.0733,-0.0686,-0.0668,-0.0646,-0.0615,-0.0605,-0.0579,-0.0563,-0.0548,-0.0537,-0.0522,-0.0504,-0.0497,-0.0501,-0.0501,-0.0502,-0.0504,-0.0491,-0.049,-0.0501,-0.0501,-0.0501,0,0,-0.085,-0.0817,-0.0809,-0.076,-0.0727,-0.0702,-0.0676,-0.0649,-0.0629,-0.0605,-0.0577,-0.056,-0.0544,-0.0525,-0.0518,-0.0517,-0.0494,-0.0502,-0.0502,-0.0505,-0.0491,-0.049,-0.0489,-0.0502,-0.0502,-0.0502,0,0,-0.087,-0.0843,-0.0835,-0.0802,-0.0753,-0.072,-0.0714,-0.066,-0.0638,-0.0607,-0.059,-0.057,-0.054,-0.0523,-0.0514,-0.0508,-0.0497,-0.0509,-0.051,-0.0496,-0.0495,-0.0494,-0.0477,-0.0475,-0.0507,-0.0507,-0.0507,0,-0.0895,-0.0872,-0.0827,-0.0807,-0.0785,-0.0731,-0.0718,-0.0683,-0.0629,-0.0612,-0.0603,-0.0556,-0.0539,-0.0517,-0.0515,-0.0507,-0.0499,-0.0506,-0.0496,-0.0494,-0.0493,-0.0477,-0.0474,-0.0507,-0.0507,-0.0507,-0.0507,0,-0.0902,-0.0885,-0.0877,-0.0832,-0.0803,-0.0783,-0.0726,-0.0697,-0.0665,-0.0628,-0.0594,-0.0562,-0.0536,-0.0527,-0.0517,-0.0501,-0.0497,-0.0497,-0.0492,-0.0491,-0.0474,-0.0471,-0.0507,-0.0507,-0.0507,-0.0507,0,0,-0.0959,-0.0897,-0.0896,-0.0879,-0.0816,-0.0793,-0.0756,-0.0707,-0.0686,-0.0633,-0.0605,-0.0569,-0.0547,-0.0537,-0.0517,-0.05,-0.0479,-0.0496,-0.0495,-0.0475,-0.0447,-0.0407,-0.04,-0.0476,-0.0476,-0.0476,-0.0436,0,-0.098,-0.0962,-0.0917,-0.0896,-0.0883,-0.082,-0.0791,-0.074,-0.0692,-0.0648,-0.0602,-0.0573,-0.0552,-0.0541,-0.0518,-0.0486,-0.0472,-0.0489,-0.0455,-0.0454,-0.0415,-0.0396,-0.0363,-0.0321,-0.0433,-0.0433,-0.0432,0,-0.1005,-0.0987,-0.098,-0.0928,-0.0916,-0.0896,-0.084,-0.0804,-0.0729,-0.0693,-0.0645,-0.0602,-0.0555,-0.0547,-0.0487,-0.0499,-0.0479,-0.0455,-0.0453,-0.0416,-0.0408,-0.0342,-0.0312,-0.0261,-0.0428,-0.0428,-0.0429,0,-0.1074,-0.103,-0.1029,-0.1012,-0.0948,-0.0934,-0.0898,-0.0828,-0.0798,-0.0724,-0.0693,-0.0626,-0.0591,-0.0551,-0.048,-0.049,-0.0414,-0.0425,-0.0371,-0.0368,-0.0333,-0.0327,-0.0246,-0.0401,-0.0401,-0.0401,-0.0401,0,-0.1122,-0.1116,-0.1065,-0.1066,-0.1065,-0.0994,-0.0978,-0.0929,-0.0858,-0.0825,-0.0729,-0.0686,-0.0592,-0.0524,-0.0481,-0.0398,-0.0414,-0.0364,-0.0352,-0.033,-0.0325,-0.0275,-0.0254,-0.04,-0.04,-0.04,-0.04,0,-0.1202,-0.1166,-0.1164,-0.1115,-0.1102,-0.1106,-0.1042,-0.1027,-0.0941,-0.0893,-0.087,-0.0733,-0.0624,-0.0521,-0.0438,-0.0394,-0.0306,-0.0307,-0.0279,-0.0263,-0.0169,-0.015,-0.0068,-0.014,-0.0243,-0.0242,-0.0241,0,-0.1241,-0.1252,-0.1227,-0.1239,-0.1221,-0.1204,-0.1196,-0.11,-0.1071,-0.0923,-0.0908,-0.0764,-0.0656,-0.0481,-0.0355,-0.0242,-0.0253,-0.0183,-0.0198,-0.0147,-0.0117,-0.012,-0.019,-0.0151,-0.015,-0.0148,-0.0147,0,-0.132,-0.1315,-0.132,-0.1357,-0.136,-0.1348,-0.1313,-0.1292,-0.1168,-0.1086,-0.0961,-0.0852,-0.0614,-0.042,-0.0241,-0.0195,-0.0161,-0.0151,-0.0106,-0.0038,-0.0028,-0.0097,-0.0196,-0.0134,-0.0136,-0.0137,-0.0137,-0.0138,-0.1384,-0.1424,-0.1446,-0.1484,-0.1495,-0.1497,-0.1496,-0.1408,-0.134,-0.1174,-0.1036,-0.0777,-0.0484,-0.0194,-0.0147,0.002,-0.0059,0.0035,0.0054,0.0045,-0.0016,-0.0081,-0.0002,-0.0002,-0.0003,-0.0003,-0.0003,0,-0.1474,-0.1519,-0.1567,-0.1616,-0.1675,-0.1625,-0.1587,-0.1556,-0.1471,-0.1193,-0.1025,-0.049,-0.0263,-0.0013,0.0253,0.0266,0.0159,0.0234,0.0234,0.0141,0.0096,0.0108,0.0225,0.0225,0.0224,0.0224,0.0224,0.0224,-0.1523,-0.1611,-0.165,-0.1785,-0.1812,-0.1854,-0.1837,-0.1724,-0.1523,-0.1092,-0.0644,-0.0338,0.0141,0.0551,0.0647,0.054,0.0419,0.0421,0.032,0.0329,0.0311,0.0293,0.0309,0.0466,0.0467,0.0318,0.0318,0.0318]}],[{"header":{"parameterUnit":"m.s-1","parameterCategory":2,"la1":30.2991,"la2":30.254,"lo1":-89.0895,"lo2":-89.0444,"dy":0.0017,"dx":0.0017,"nx":28,"ny":28,"refTime":"2023-10-11T09:00:00:Z","depth":"2","parameterNumber":2,"parameterNumberName":"U-component_of_CURRENTS"},"data":[0,0,0,0,0,0,0,0,0,0,0,0,0,0,0,0,0,0,0,0,0,0,0,0,0,0,0,0,0,0,0,0,0,0,0,0,0,0,0,0,0,0,0,0,0,0,0,0,0,0,0,0,0,0,0,0,0,0,-0.2887,-0.2887,0,-0.2861,-0.286,-0.2859,-0.2845,-0.2846,-0.2846,-0.2847,-0.2783,-0.2781,-0.2779,0,0,0,0,0,0,0,0,0,0,0,0,0,-0.2843,-0.2844,-0.2887,-0.2887,-0.2887,-0.2861,-0.286,-0.2859,-0.2845,-0.2846,-0.2847,-0.2847,-0.2784,-0.2782,-0.2779,0,0,0,0,0,0,0,0,0,0,0,0,0,-0.2839,-0.2844,-0.2887,-0.2881,-0.288,-0.2861,-0.286,-0.2859,-0.2845,-0.2846,-0.2847,-0.2847,-0.2785,-0.2782,-0.2779,-0.2745,0,0,-0.2769,-0.2768,0,0,0,0,0,0,0,0,-0.284,-0.284,-0.2882,-0.2881,-0.2881,-0.2862,-0.2822,-0.2821,-0.2845,-0.2853,-0.2847,-0.2848,-0.2809,-0.2804,-0.279,-0.2742,-0.2739,-0.2769,-0.2767,-0.2765,-0.2764,0,0,0,0,0,0,0,-0.284,-0.2841,-0.2871,-0.2882,-0.2881,-0.2852,-0.2853,-0.2821,-0.2823,-0.2852,-0.2853,-0.2858,-0.2808,-0.2794,-0.2789,-0.2739,-0.2769,-0.2766,-0.2764,-0.2763,-0.2703,-0.2704,0,0,0,0,0,0,-0.2858,-0.2842,-0.2872,-0.2871,-0.2867,-0.2853,-0.2853,-0.2863,-0.2824,-0.282,-0.2858,-0.2858,-0.2799,-0.2793,-0.2787,-0.2778,-0.2765,-0.2762,-0.2761,-0.2703,-0.2703,-0.2704,0,0,0,0,0,0,-0.2857,-0.2861,-0.2873,-0.2859,-0.286,-0.2854,-0.2864,-0.2862,-0.2853,-0.2829,-0.2824,-0.2853,-0.2799,-0.2791,-0.2766,-0.2774,-0.2761,-0.2758,-0.2703,-0.2703,-0.2704,-0.2739,0,0,0,0,0,0,-0.2856,-0.286,-0.2864,-0.2861,-0.2861,-0.2873,-0.2864,-0.2861,-0.2858,-0.2858,-0.2823,-0.2818,-0.2799,-0.2771,-0.2763,-0.2769,-0.2756,-0.2702,-0.2703,-0.2703,-0.2737,-0.274,-0.2743,0,0,0,0,0,-0.2854,-0.2862,-0.2864,-0.2867,-0.2869,-0.2874,-0.2871,-0.2865,-0.2857,-0.2858,-0.2832,-0.2819,-0.277,-0.2768,-0.2758,-0.2765,-0.2702,-0.2703,-0.2703,-0.2736,-0.274,-0.2743,0,0,0,0,0,0,-0.2842,-0.2862,-0.2864,-0.2876,-0.2881,-0.2874,-0.2871,-0.2866,-0.2844,-0.2839,-0.2812,-0.2805,-0.2791,-0.2769,-0.2768,-0.2751,-0.2737,-0.2736,-0.2765,-0.2769,-0.2772,-0.2777,-0.2753,0,0,0,0,0,-0.2843,-0.2855,-0.2868,-0.2876,-0.288,-0.2873,-0.2871,-0.287,-0.2857,-0.2848,-0.2824,-0.28,-0.2784,-0.2771,-0.2751,-0.2729,-0.273,-0.2731,-0.2734,-0.2737,-0.2736,-0.2742,-0.2745,-0.2706,-0.2706,-0.2706,0,0,-0.2842,-0.2853,-0.286,-0.2875,-0.2872,-0.2876,-0.2872,-0.2874,-0.2873,-0.2842,-0.2822,-0.2806,-0.2781,-0.2767,-0.2759,-0.2751,-0.2753,-0.2738,-0.274,-0.2738,-0.2743,-0.2747,-0.275,-0.2707,-0.2707,-0.2707,0,0,-0.2843,-0.2855,-0.2863,-0.2869,-0.2878,-0.2877,-0.2881,-0.2877,-0.2871,-0.2852,-0.2839,-0.2828,-0.2789,-0.2782,-0.2771,-0.2775,-0.2771,-0.2773,-0.2786,-0.2793,-0.2796,-0.2799,-0.2826,-0.2831,-0.2772,-0.2772,-0.2772,0,-0.2841,-0.2853,-0.2864,-0.2871,-0.2877,-0.288,-0.2885,-0.2879,-0.2865,-0.2862,-0.2852,-0.2817,-0.2797,-0.2791,-0.2797,-0.2783,-0.2791,-0.2775,-0.2797,-0.28,-0.2802,-0.2829,-0.2834,-0.2774,-0.2773,-0.2773,-0.2773,0,-0.2843,-0.2854,-0.2859,-0.2872,-0.2877,-0.2885,-0.289,-0.2888,-0.2879,-0.2874,-0.2865,-0.2841,-0.2824,-0.2822,-0.2806,-0.2817,-0.2821,-0.2804,-0.279,-0.2808,-0.2835,-0.284,-0.2776,-0.2776,-0.2775,-0.2775,0,0,-0.2834,-0.2858,-0.2857,-0.2868,-0.288,-0.2888,-0.289,-0.2897,-0.2905,-0.2886,-0.289,-0.2866,-0.286,-0.2848,-0.2836,-0.284,-0.287,-0.2829,-0.2828,-0.286,-0.2903,-0.2972,-0.2984,-0.2857,-0.2857,-0.2858,-0.2923,0,-0.2832,-0.285,-0.2858,-0.2872,-0.2884,-0.2894,-0.29,-0.2906,-0.2908,-0.2912,-0.2897,-0.2892,-0.2869,-0.2866,-0.2866,-0.2863,-0.288,-0.2855,-0.2876,-0.2877,-0.2939,-0.2991,-0.2573,-0.2602,-0.2927,-0.2928,-0.2929,0,-0.2824,-0.2842,-0.2856,-0.2886,-0.2892,-0.2897,-0.2919,-0.2924,-0.2935,-0.2935,-0.2931,-0.2924,-0.2922,-0.2901,-0.2911,-0.2896,-0.2905,-0.2906,-0.2908,-0.2962,-0.2955,-0.2631,-0.2598,-0.2936,-0.2935,-0.2935,-0.2934,0,-0.2813,-0.2838,-0.2852,-0.286,-0.2891,-0.2897,-0.2909,-0.2927,-0.2948,-0.295,-0.2972,-0.2956,-0.2962,-0.2954,-0.296,-0.2934,-0.2986,-0.2949,-0.3027,-0.3032,-0.2675,-0.265,-0.2971,-0.2971,-0.2971,-0.2971,-0.2971,0,-0.2809,-0.282,-0.2848,-0.2858,-0.288,-0.2895,-0.292,-0.2932,-0.2964,-0.3004,-0.2982,-0.3019,-0.2976,-0.3002,-0.2987,-0.3038,-0.3009,-0.3049,-0.3058,-0.2682,-0.2658,-0.2935,-0.293,-0.2973,-0.2973,-0.2972,-0.2972,0,-0.2791,-0.2811,-0.2832,-0.2865,-0.2877,-0.2888,-0.2936,-0.2963,-0.2987,-0.3043,-0.3049,-0.3073,-0.3109,-0.3098,-0.3103,-0.3098,-0.3119,-0.3147,-0.2736,-0.2699,-0.3152,-0.3148,-0.3233,-0.3236,-0.3238,-0.324,-0.3242,0,-0.2781,-0.2788,-0.2831,-0.2848,-0.2861,-0.2888,-0.2917,-0.2961,-0.3001,-0.309,-0.3124,-0.318,-0.3228,-0.3272,-0.3117,-0.3097,-0.3233,-0.2864,-0.2758,-0.3181,-0.3181,-0.3172,-0.3165,-0.228,-0.2274,-0.2269,-0.2265,0,-0.2746,-0.2759,-0.2774,-0.2828,-0.286,-0.291,-0.2957,-0.3013,-0.3082,-0.3137,-0.3269,-0.3322,-0.3253,-0.3016,-0.2966,-0.2906,-0.2826,-0.2778,-0.3261,-0.2338,-0.2305,-0.2299,-0.2317,-0.222,-0.2224,-0.2228,-0.223,-0.2232,-0.2699,-0.2708,-0.2735,-0.2776,-0.284,-0.2926,-0.2938,-0.2953,-0.3026,-0.2992,-0.32,-0.3096,-0.2954,-0.2651,-0.2547,-0.2423,-0.2631,-0.2534,-0.2537,-0.2549,-0.2487,-0.2466,-0.2399,-0.2404,-0.2409,-0.2413,-0.2417,0,-0.2574,-0.2639,-0.2684,-0.275,-0.2748,-0.2847,-0.2947,-0.2812,-0.2785,-0.2789,-0.2778,-0.2413,-0.2257,-0.2203,-0.1862,-0.188,-0.1713,-0.1911,-0.1617,-0.1662,-0.1701,-0.1586,-0.1265,-0.1263,-0.1261,-0.1259,0,0,-0.2512,-0.249,-0.2524,-0.2558,-0.2651,-0.2556,-0.2579,-0.2403,-0.2291,-0.2084,-0.1993,-0.2061,-0.2125,-0.1665,-0.1538,-0.1378,-0.1523,-0.1318,-0.2212,-0.1905,-0.1943,-0.2008,-0.1878,0,0,0,0,0]},{"header":{"parameterUnit":"m.s-1","parameterCategory":2,"la1":30.2991,"la2":30.254,"lo1":-89.0895,"lo2":-89.0444,"dy":0.0017,"dx":0.0017,"nx":28,"ny":28,"refTime":"2023-10-11T09:00:00:Z","depth":"2","parameterNumber":3,"parameterNumberName":"V-component_of_CURRENTS"},"data":[0,0,0,0,0,0,0,0,0,0,0,0,0,0,0,0,0,0,0,0,0,0,0,0,0,0,0,0,0,0,0,0,0,0,0,0,0,0,0,0,0,0,0,0,0,0,0,0,0,0,0,0,0,0,0,0,0,0,-0.0675,-0.0674,0,-0.0592,-0.0591,-0.0591,-0.0562,-0.0562,-0.0562,-0.0562,-0.0519,-0.0518,-0.0516,0,0,0,0,0,0,0,0,0,0,0,0,0,-0.0775,-0.0774,-0.0675,-0.0674,-0.0673,-0.0592,-0.0591,-0.059,-0.0561,-0.0562,-0.0562,-0.0562,-0.052,-0.0518,-0.0516,0,0,0,0,0,0,0,0,0,0,0,0,0,-0.0717,-0.0773,-0.0675,-0.0648,-0.0645,-0.0593,-0.0591,-0.059,-0.0561,-0.0562,-0.0562,-0.0563,-0.052,-0.0518,-0.0516,-0.0496,0,0,-0.051,-0.0509,0,0,0,0,0,0,0,0,-0.072,-0.0713,-0.0653,-0.065,-0.0646,-0.0587,-0.0611,-0.056,-0.0561,-0.0594,-0.0562,-0.0563,-0.0545,-0.0541,-0.0525,-0.0494,-0.0492,-0.051,-0.0508,-0.0507,-0.0507,0,0,0,0,0,0,0,-0.0724,-0.0716,-0.0643,-0.0652,-0.0648,-0.0629,-0.0621,-0.0601,-0.057,-0.0591,-0.0589,-0.0578,-0.0543,-0.0527,-0.0524,-0.0491,-0.051,-0.0508,-0.0506,-0.0506,-0.0468,-0.0468,0,0,0,0,0,0,-0.0734,-0.072,-0.0646,-0.0641,-0.0684,-0.0627,-0.0619,-0.0606,-0.0569,-0.0563,-0.0578,-0.0577,-0.053,-0.0526,-0.0522,-0.0504,-0.0507,-0.0505,-0.0504,-0.0467,-0.0468,-0.0468,0,0,0,0,0,0,-0.0736,-0.0728,-0.0649,-0.0678,-0.0667,-0.0625,-0.0611,-0.0604,-0.059,-0.0558,-0.0553,-0.0571,-0.053,-0.0525,-0.0506,-0.0502,-0.0505,-0.0503,-0.0467,-0.0468,-0.0468,-0.0464,0,0,0,0,0,0,-0.074,-0.0729,-0.0729,-0.0679,-0.0665,-0.0622,-0.0611,-0.0602,-0.0583,-0.0581,-0.0551,-0.0547,-0.053,-0.0509,-0.0504,-0.05,-0.0501,-0.0467,-0.0467,-0.0468,-0.0464,-0.0464,-0.0464,0,0,0,0,0,-0.0744,-0.0746,-0.0729,-0.072,-0.0664,-0.0622,-0.0614,-0.0586,-0.0582,-0.0575,-0.0556,-0.0548,-0.0509,-0.0507,-0.0501,-0.0496,-0.0467,-0.0467,-0.0468,-0.0464,-0.0464,-0.0464,0,0,0,0,0,0,-0.0793,-0.0741,-0.0723,-0.071,-0.0669,-0.0617,-0.0609,-0.0588,-0.0565,-0.0569,-0.0542,-0.0537,-0.0521,-0.0512,-0.0511,-0.049,-0.049,-0.0489,-0.0489,-0.0489,-0.0489,-0.0496,-0.0499,0,0,0,0,0,-0.0801,-0.0785,-0.0732,-0.072,-0.0702,-0.0655,-0.0637,-0.0615,-0.0585,-0.0575,-0.0549,-0.0532,-0.0517,-0.0506,-0.0491,-0.0473,-0.0465,-0.047,-0.047,-0.047,-0.0473,-0.046,-0.0458,-0.047,-0.047,-0.047,0,0,-0.0818,-0.0785,-0.0778,-0.0728,-0.0696,-0.0671,-0.0646,-0.0619,-0.0599,-0.0575,-0.0547,-0.053,-0.0514,-0.0494,-0.0487,-0.0486,-0.0463,-0.0471,-0.0471,-0.0474,-0.046,-0.0459,-0.0458,-0.047,-0.047,-0.047,0,0,-0.0839,-0.0811,-0.0804,-0.0771,-0.0723,-0.0689,-0.0684,-0.063,-0.0608,-0.0577,-0.056,-0.054,-0.051,-0.0492,-0.0483,-0.0477,-0.0466,-0.0478,-0.0479,-0.0465,-0.0464,-0.0463,-0.0447,-0.0444,-0.0476,-0.0476,-0.0476,0,-0.0864,-0.084,-0.0796,-0.0776,-0.0754,-0.07,-0.0688,-0.0652,-0.0599,-0.0582,-0.0574,-0.0525,-0.0508,-0.0486,-0.0484,-0.0476,-0.0469,-0.0475,-0.0465,-0.0463,-0.0462,-0.0446,-0.0443,-0.0476,-0.0476,-0.0476,-0.0476,0,-0.0871,-0.0854,-0.0846,-0.0801,-0.0772,-0.0752,-0.0696,-0.0667,-0.0635,-0.0598,-0.0564,-0.0532,-0.0506,-0.0497,-0.0486,-0.047,-0.0467,-0.0466,-0.0461,-0.0461,-0.0444,-0.0441,-0.0476,-0.0476,-0.0476,-0.0476,0,0,-0.0928,-0.0866,-0.0865,-0.0848,-0.0785,-0.0763,-0.0726,-0.0677,-0.0656,-0.0603,-0.0575,-0.0539,-0.0517,-0.0507,-0.0486,-0.0469,-0.0449,-0.0466,-0.0465,-0.0445,-0.0417,-0.0377,-0.037,-0.0446,-0.0446,-0.0445,-0.0406,0,-0.0949,-0.0931,-0.0886,-0.0865,-0.0852,-0.079,-0.076,-0.071,-0.0662,-0.0618,-0.0572,-0.0543,-0.0522,-0.0511,-0.0488,-0.0456,-0.0442,-0.0459,-0.0425,-0.0424,-0.0385,-0.0366,-0.0279,-0.0233,-0.0403,-0.0403,-0.0403,0,-0.0974,-0.0956,-0.0949,-0.0897,-0.0885,-0.0865,-0.081,-0.0774,-0.0699,-0.0663,-0.0615,-0.0572,-0.0525,-0.0518,-0.0457,-0.0469,-0.0449,-0.0425,-0.0423,-0.0387,-0.0378,-0.0263,-0.0222,-0.0398,-0.0398,-0.0398,-0.0399,0,-0.1044,-0.0999,-0.0999,-0.0982,-0.0918,-0.0904,-0.0868,-0.0798,-0.0768,-0.0694,-0.0664,-0.0597,-0.0562,-0.0521,-0.045,-0.0461,-0.0385,-0.0395,-0.0341,-0.0338,-0.0257,-0.0247,-0.0371,-0.0371,-0.0371,-0.0371,-0.0371,0,-0.1091,-0.1086,-0.1034,-0.1035,-0.1035,-0.0964,-0.0948,-0.0899,-0.0829,-0.0795,-0.07,-0.0658,-0.0563,-0.0495,-0.0452,-0.0369,-0.0384,-0.0335,-0.0322,-0.0253,-0.0244,-0.0386,-0.0388,-0.037,-0.037,-0.037,-0.037,0,-0.1171,-0.1135,-0.1134,-0.1085,-0.1072,-0.1076,-0.1012,-0.0998,-0.0912,-0.0864,-0.0841,-0.0705,-0.0596,-0.0494,-0.041,-0.0366,-0.0301,-0.0278,-0.0196,-0.0174,-0.0268,-0.0271,-0.0218,-0.0217,-0.0215,-0.0214,-0.0213,0,-0.121,-0.1221,-0.1197,-0.1208,-0.1191,-0.1174,-0.1166,-0.1071,-0.1042,-0.0894,-0.0879,-0.0736,-0.0624,-0.0449,-0.0293,-0.0172,-0.0253,-0.0099,-0.0106,-0.0257,-0.0251,-0.0256,-0.0261,0.0005,0.0008,0.001,0.0012,0,-0.129,-0.1285,-0.129,-0.1327,-0.1331,-0.1318,-0.1284,-0.1262,-0.1138,-0.1051,-0.0926,-0.0814,-0.0551,-0.0321,-0.0134,-0.0078,-0.0103,-0.0052,-0.0214,-0.0053,-0.0045,-0.004,-0.0052,0.0032,0.003,0.0028,0.0027,0.0026,-0.1353,-0.1393,-0.1415,-0.1454,-0.1465,-0.1467,-0.1466,-0.1354,-0.1278,-0.1098,-0.0984,-0.0754,-0.0503,-0.0161,-0.0001,0.0133,0.0073,0.0062,0.0054,0.0044,0.0058,0.0067,0.0168,0.0167,0.0166,0.0165,0.0164,0,-0.1413,-0.1488,-0.1536,-0.1586,-0.161,-0.1595,-0.1557,-0.1476,-0.1353,-0.1136,-0.0954,-0.0623,-0.0314,-0.0093,0.0205,0.0326,0.0325,0.0287,0.0282,0.0263,0.0245,0.0267,0.0434,0.0435,0.0435,0.0436,0,0,-0.1455,-0.1529,-0.1566,-0.1686,-0.174,-0.1727,-0.1708,-0.1543,-0.1359,-0.1091,-0.0883,-0.0633,-0.0317,-0.008,0.0144,0.0296,0.0211,0.0293,0.0072,0.0024,0.0004,0.0126,0.0141,0,0,0,0,0]}],[{"header":{"parameterUnit":"m.s-1","parameterCategory":2,"la1":30.2991,"la2":30.254,"lo1":-89.0895,"lo2":-89.0444,"dy":0.0017,"dx":0.0017,"nx":28,"ny":28,"refTime":"2023-10-11T09:00:00:Z","depth":"4","parameterNumber":2,"parameterNumberName":"U-component_of_CURRENTS"},"data":[0,0,0,0,0,0,0,0,0,0,0,0,0,0,0,0,0,0,0,0,0,0,0,0,0,0,0,0,0,0,0,0,0,0,0,0,0,0,0,0,0,0,0,0,0,0,0,0,0,0,0,0,0,0,0,0,0,0,-0.1302,-0.1302,0,-0.1313,-0.1312,-0.1312,-0.1336,-0.1337,-0.1338,-0.1338,-0.1345,-0.1344,-0.1344,0,0,0,0,0,0,0,0,0,0,0,0,0,-0.1258,-0.1258,-0.1302,-0.1302,-0.1303,-0.1313,-0.1312,-0.1312,-0.1336,-0.1337,-0.1338,-0.1339,-0.1345,-0.1344,-0.1344,0,0,0,0,0,0,0,0,0,0,0,0,0,-0.127,-0.1259,-0.1302,-0.1318,-0.132,-0.1313,-0.1312,-0.1312,-0.1336,-0.1337,-0.1338,-0.1339,-0.1345,-0.1344,-0.1343,-0.1315,0,0,-0.1341,-0.1341,0,0,0,0,0,0,0,0,-0.127,-0.1272,-0.1315,-0.1317,-0.1319,-0.1327,-0.1299,-0.1314,-0.1335,-0.1326,-0.1338,-0.134,-0.134,-0.1339,-0.1334,-0.1315,-0.1315,-0.1341,-0.134,-0.134,-0.134,0,0,0,0,0,0,0,-0.1269,-0.1271,-0.1303,-0.1316,-0.1318,-0.131,-0.1313,-0.1302,-0.1324,-0.1327,-0.133,-0.1336,-0.134,-0.1335,-0.1335,-0.1315,-0.1341,-0.134,-0.134,-0.1339,-0.134,-0.134,0,0,0,0,0,0,-0.1275,-0.127,-0.1302,-0.1303,-0.13,-0.131,-0.1314,-0.1321,-0.1324,-0.1327,-0.1335,-0.1337,-0.1336,-0.1335,-0.1335,-0.1374,-0.134,-0.1339,-0.1339,-0.1339,-0.134,-0.1341,0,0,0,0,0,0,-0.1274,-0.1278,-0.1302,-0.129,-0.1293,-0.131,-0.1318,-0.132,-0.1343,-0.133,-0.1332,-0.1359,-0.1337,-0.1336,-0.1345,-0.1372,-0.1339,-0.1338,-0.1339,-0.134,-0.134,-0.1405,0,0,0,0,0,0,-0.1273,-0.1277,-0.1292,-0.129,-0.1294,-0.132,-0.1317,-0.132,-0.1345,-0.1348,-0.1351,-0.1351,-0.1338,-0.1347,-0.1345,-0.137,-0.1337,-0.1338,-0.1339,-0.134,-0.1402,-0.1408,-0.1413,0,0,0,0,0,-0.1271,-0.1285,-0.1293,-0.1297,-0.1311,-0.1321,-0.1323,-0.1336,-0.1345,-0.136,-0.1358,-0.1352,-0.1352,-0.1346,-0.1344,-0.1369,-0.1338,-0.1339,-0.134,-0.14,-0.1407,-0.1413,0,0,0,0,0,0,-0.1274,-0.1288,-0.1298,-0.1316,-0.133,-0.1327,-0.1343,-0.135,-0.1359,-0.1368,-0.1355,-0.1355,-0.1373,-0.1357,-0.1352,-0.1371,-0.1345,-0.1346,-0.1391,-0.1398,-0.1403,-0.1407,-0.1337,0,0,0,0,0,-0.1281,-0.1298,-0.1308,-0.1327,-0.1336,-0.1343,-0.1353,-0.1364,-0.1368,-0.1375,-0.1377,-0.1375,-0.1369,-0.1375,-0.1367,-0.1375,-0.1359,-0.139,-0.1395,-0.14,-0.1401,-0.139,-0.1395,-0.1344,-0.1344,-0.1344,0,0,-0.1288,-0.1299,-0.131,-0.1329,-0.1339,-0.1355,-0.1352,-0.1376,-0.1394,-0.1372,-0.1401,-0.1395,-0.1375,-0.1387,-0.1394,-0.1382,-0.1409,-0.1401,-0.1405,-0.1404,-0.1392,-0.1397,-0.1402,-0.1345,-0.1345,-0.1345,0,0,-0.13,-0.1321,-0.1336,-0.1351,-0.1375,-0.1379,-0.1394,-0.1409,-0.1425,-0.1443,-0.1433,-0.1441,-0.1439,-0.1431,-0.1423,-0.145,-0.1436,-0.1456,-0.149,-0.1481,-0.1485,-0.1488,-0.149,-0.1493,-0.146,-0.1461,-0.1461,0,-0.1311,-0.1329,-0.1343,-0.136,-0.1377,-0.1395,-0.1415,-0.1429,-0.1448,-0.146,-0.1465,-0.1465,-0.1456,-0.146,-0.1474,-0.1463,-0.146,-0.147,-0.1489,-0.1491,-0.1494,-0.1494,-0.1497,-0.1464,-0.1464,-0.1463,-0.1463,0,-0.1321,-0.135,-0.1362,-0.139,-0.141,-0.1433,-0.1454,-0.1481,-0.1503,-0.1511,-0.1535,-0.1521,-0.1521,-0.1525,-0.1509,-0.1526,-0.1519,-0.1497,-0.1475,-0.1503,-0.1502,-0.1503,-0.1469,-0.1467,-0.1466,-0.1466,0,0,-0.1305,-0.136,-0.1366,-0.1394,-0.1431,-0.1449,-0.1483,-0.1513,-0.1541,-0.1561,-0.1588,-0.1585,-0.1587,-0.1577,-0.1566,-0.1563,-0.1585,-0.1547,-0.1545,-0.1554,-0.1579,-0.1505,-0.15,-0.157,-0.1571,-0.1571,-0.1577,0,-0.1311,-0.1354,-0.1377,-0.1426,-0.1452,-0.1485,-0.1516,-0.1548,-0.1575,-0.1607,-0.1604,-0.1621,-0.1604,-0.1614,-0.161,-0.1587,-0.1589,-0.1586,-0.1545,-0.1544,-0.1479,-0.1499,-0.1572,-0.1578,-0.1578,-0.1579,-0.1579,0,-0.1302,-0.1338,-0.1387,-0.1455,-0.1469,-0.1502,-0.156,-0.1591,-0.1631,-0.1651,-0.1668,-0.167,-0.1676,-0.1656,-0.1636,-0.1639,-0.1618,-0.1599,-0.1598,-0.1505,-0.1472,-0.1539,-0.1581,-0.1581,-0.1581,-0.158,-0.158,0,-0.1273,-0.1342,-0.1387,-0.141,-0.1484,-0.1518,-0.1556,-0.1605,-0.1642,-0.1682,-0.1713,-0.1711,-0.1723,-0.1693,-0.1666,-0.1655,-0.1644,-0.1614,-0.153,-0.1526,-0.1563,-0.1559,-0.1601,-0.1601,-0.1601,-0.1601,-0.1601,0,-0.1254,-0.1294,-0.1386,-0.1411,-0.1472,-0.1521,-0.1581,-0.1619,-0.1678,-0.1718,-0.1737,-0.1757,-0.1736,-0.173,-0.1687,-0.1617,-0.1659,-0.1538,-0.1518,-0.1592,-0.1591,-0.1565,-0.156,-0.1601,-0.1601,-0.1601,-0.1601,0,-0.1207,-0.1268,-0.133,-0.1425,-0.1461,-0.1503,-0.1603,-0.1641,-0.1701,-0.1755,-0.1772,-0.1804,-0.1784,-0.1762,-0.1717,-0.1641,-0.1581,-0.1549,-0.1652,-0.1638,-0.1464,-0.1464,-0.1439,-0.1436,-0.1434,-0.1432,-0.143,0,-0.1183,-0.1212,-0.1332,-0.1378,-0.1427,-0.1503,-0.1554,-0.1639,-0.1673,-0.1768,-0.1778,-0.1809,-0.181,-0.1692,-0.1666,-0.1581,-0.1554,-0.1516,-0.1464,-0.1462,-0.1446,-0.1449,-0.1451,-0.1427,-0.1426,-0.1426,-0.1425,0,-0.1131,-0.1185,-0.1234,-0.1333,-0.1405,-0.1479,-0.1553,-0.1582,-0.1671,-0.1745,-0.1748,-0.1723,-0.1705,-0.1639,-0.1595,-0.1527,-0.1528,-0.1491,-0.1495,-0.1446,-0.1448,-0.1434,-0.1439,-0.1417,-0.1418,-0.1419,-0.142,0,-0.1086,-0.1109,-0.1184,-0.1257,-0.136,-0.1422,-0.1477,-0.152,-0.157,-0.1672,-0.1669,-0.1686,-0.1718,-0.1613,-0.1566,-0.15,-0.1453,-0.1381,-0.1389,-0.1397,-0.1371,-0.1367,-0.1296,0,0,0,0,0,-0.1025,-0.1036,-0.1103,-0.1176,-0.1282,-0.1327,-0.1459,-0.1511,-0.1607,-0.1584,-0.1624,-0.1601,-0.1536,-0.153,-0.1441,-0.1513,-0.1448,-0.1401,-0.1368,-0.1374,-0.1383,-0.1351,0,0,0,0,0,0,-0.0981,-0.1027,-0.1057,-0.1095,-0.1124,-0.1217,-0.1297,-0.1371,-0.1359,-0.1459,-0.143,-0.1483,-0.1434,-0.1546,-0.1394,-0.139,-0.1335,-0.1407,-0.1403,-0.1369,-0.1377,-0.1385,-0.1355,0,0,0,0,0]},{"header":{"parameterUnit":"m.s-1","parameterCategory":2,"la1":30.2991,"la2":30.254,"lo1":-89.0895,"lo2":-89.0444,"dy":0.0017,"dx":0.0017,"nx":28,"ny":28,"refTime":"2023-10-11T09:00:00:Z","depth":"4","parameterNumber":3,"parameterNumberName":"V-component_of_CURRENTS"},"data":[0,0,0,0,0,0,0,0,0,0,0,0,0,0,0,0,0,0,0,0,0,0,0,0,0,0,0,0,0,0,0,0,0,0,0,0,0,0,0,0,0,0,0,0,0,0,0,0,0,0,0,0,0,0,0,0,0,0,-0.0098,-0.0097,0,-0.0036,-0.0035,-0.0034,-0.0011,-0.0011,-0.0011,-0.0011,0.002,0.0021,0.0022,0,0,0,0,0,0,0,0,0,0,0,0,0,-0.0157,-0.0156,-0.0098,-0.0097,-0.0096,-0.0036,-0.0035,-0.0034,-0.0011,-0.0011,-0.0011,-0.0011,0.002,0.0021,0.0022,0,0,0,0,0,0,0,0,0,0,0,0,0,-0.0117,-0.0156,-0.0098,-0.0077,-0.0074,-0.0036,-0.0035,-0.0034,-0.0011,-0.0011,-0.0011,-0.0011,0.0019,0.0021,0.0022,0.0036,0,0,0.0027,0.0027,0,0,0,0,0,0,0,0,-0.012,-0.0115,-0.0081,-0.0078,-0.0075,-0.0031,-0.0044,-0.0012,-0.001,-0.0035,-0.0011,-0.0011,0.0,0.0003,0.0016,0.0038,0.0039,0.0027,0.0028,0.0028,0.0029,0,0,0,0,0,0,0,-0.0122,-0.0117,-0.0073,-0.008,-0.0077,-0.0057,-0.0052,-0.0038,-0.0017,-0.0033,-0.0031,-0.0024,0.0002,0.0014,0.0017,0.0039,0.0027,0.0028,0.0029,0.003,0.0057,0.0057,0,0,0,0,0,0,-0.0131,-0.012,-0.0075,-0.0071,-0.0098,-0.0056,-0.0051,-0.0045,-0.0017,-0.0012,-0.0023,-0.0023,0.0012,0.0015,0.0018,0.0026,0.0028,0.003,0.003,0.0058,0.0057,0.0057,0,0,0,0,0,0,-0.0133,-0.0128,-0.0078,-0.0094,-0.0086,-0.0055,-0.0049,-0.0044,-0.0036,-0.0009,-0.0006,-0.0022,0.0012,0.0016,0.0031,0.0028,0.003,0.0032,0.0058,0.0058,0.0057,0.005,0,0,0,0,0,0,-0.0135,-0.0129,-0.0133,-0.0095,-0.0086,-0.0062,-0.0049,-0.0042,-0.0031,-0.0029,-0.0007,-0.0004,0.0012,0.0028,0.0032,0.003,0.0033,0.0058,0.0058,0.0057,0.005,0.0049,0.0049,0,0,0,0,0,-0.0137,-0.014,-0.0133,-0.0128,-0.009,-0.0062,-0.0055,-0.0034,-0.0031,-0.0028,-0.0009,-0.0005,0.0029,0.003,0.0034,0.0032,0.0058,0.0058,0.0057,0.005,0.0049,0.0049,0,0,0,0,0,0,-0.0167,-0.0136,-0.0128,-0.0122,-0.0098,-0.0058,-0.0054,-0.0039,-0.0021,-0.0024,0.0,0.0005,0.0016,0.0024,0.0024,0.0038,0.0042,0.0042,0.0035,0.0034,0.0033,0.0024,0.0034,0,0,0,0,0,-0.0175,-0.0171,-0.0136,-0.0132,-0.0122,-0.009,-0.0078,-0.0063,-0.0039,-0.0032,-0.0011,0.0004,0.0019,0.0026,0.004,0.0051,0.0061,0.005,0.0049,0.0049,0.0044,0.0062,0.0063,0.0056,0.0056,0.0056,0,0,-0.0187,-0.0169,-0.0168,-0.0139,-0.012,-0.0105,-0.0084,-0.0069,-0.0057,-0.0032,-0.0014,0.0003,0.0021,0.0035,0.004,0.0041,0.0056,0.0048,0.0048,0.0043,0.0062,0.0063,0.0063,0.0056,0.0056,0.0056,0,0,-0.0202,-0.0191,-0.0191,-0.0173,-0.0146,-0.0124,-0.0123,-0.0086,-0.0071,-0.0051,-0.003,-0.0012,0.001,0.003,0.004,0.0042,0.0051,0.0039,0.003,0.0048,0.0049,0.0049,0.0066,0.0068,0.0039,0.0039,0.0039,0,-0.0219,-0.0211,-0.0187,-0.0178,-0.0167,-0.0135,-0.013,-0.0107,-0.007,-0.0057,-0.0052,-0.0009,0.0008,0.003,0.0031,0.004,0.0049,0.0034,0.0047,0.0048,0.0049,0.0066,0.0068,0.0038,0.0038,0.0038,0.0038,0,-0.0227,-0.0224,-0.0222,-0.0202,-0.0187,-0.0178,-0.0144,-0.0128,-0.0109,-0.0083,-0.0058,-0.0025,-0.0003,0.0007,0.002,0.0035,0.0039,0.0045,0.0051,0.005,0.0067,0.007,0.0038,0.0038,0.0038,0.0038,0,0,-0.0255,-0.0234,-0.0234,-0.0232,-0.02,-0.0189,-0.0171,-0.0141,-0.0133,-0.0095,-0.0078,-0.0043,-0.0025,-0.0014,0.001,0.0028,0.0048,0.0035,0.0036,0.0052,0.0084,0.0105,0.011,0.0055,0.0056,0.0056,0.0095,0,-0.0269,-0.0272,-0.0249,-0.0249,-0.0248,-0.0214,-0.02,-0.0172,-0.0143,-0.0118,-0.0078,-0.0057,-0.0033,-0.0026,-0.0001,0.0035,0.0054,0.0036,0.0082,0.0083,0.0103,0.0114,0.0057,0.0097,0.0098,0.0098,0.0099,0,-0.028,-0.0283,-0.0293,-0.0279,-0.0275,-0.0269,-0.0247,-0.0229,-0.0184,-0.0163,-0.0128,-0.0094,-0.0054,-0.004,0.0024,0.001,0.0041,0.0071,0.0073,0.0096,0.0109,0.0098,0.0104,0.0104,0.0103,0.0103,0.0102,0,-0.0316,-0.0308,-0.0323,-0.0318,-0.0299,-0.0297,-0.0287,-0.025,-0.0239,-0.0195,-0.0182,-0.0124,-0.0101,-0.0049,0.0019,0.0017,0.0088,0.0093,0.0144,0.0146,0.0118,0.0117,0.0131,0.0131,0.0131,0.0131,0.0131,0,-0.0335,-0.0344,-0.0346,-0.0354,-0.0375,-0.0342,-0.0351,-0.0327,-0.0294,-0.0286,-0.0215,-0.0192,-0.0104,-0.0046,0.0011,0.0091,0.0083,0.0144,0.0159,0.0114,0.0112,0.012,0.0119,0.0133,0.0132,0.0132,0.0132,0,-0.0366,-0.0365,-0.0386,-0.0388,-0.0394,-0.0412,-0.0408,-0.0412,-0.0367,-0.0353,-0.0342,-0.0247,-0.0169,-0.0075,0.0015,0.0079,0.0152,0.0179,0.0126,0.0136,0.0199,0.0196,0.0239,0.024,0.0241,0.0242,0.0243,0,-0.0378,-0.0395,-0.0429,-0.0457,-0.0462,-0.0484,-0.0503,-0.0466,-0.0463,-0.0386,-0.0383,-0.0292,-0.0226,-0.0079,0.0024,0.0148,0.0165,0.0213,0.0208,0.0201,0.0211,0.0207,0.0203,0.0244,0.0244,0.0245,0.0245,0,-0.0405,-0.0425,-0.045,-0.0521,-0.0555,-0.0587,-0.0602,-0.0597,-0.0545,-0.0501,-0.0419,-0.031,-0.0212,-0.0085,0.002,0.0108,0.0192,0.0223,0.0222,0.0217,0.0207,0.0215,0.021,0.0248,0.0248,0.0247,0.0247,0,-0.043,-0.0466,-0.0517,-0.0576,-0.0636,-0.068,-0.067,-0.0649,-0.0628,-0.0521,-0.0497,-0.036,-0.0272,-0.0106,-0.0012,0.0086,0.0109,0.0147,0.0149,0.0147,0.0117,0.0091,0.011,0,0,0,0,0,-0.0447,-0.0501,-0.0567,-0.0641,-0.0707,-0.0741,-0.0737,-0.0709,-0.0646,-0.0602,-0.0542,-0.0445,-0.0256,-0.0164,-0.007,-0.0009,0.0113,0.0108,0.0152,0.0266,0.0262,0.0246,0,0,0,0,0,0,-0.0461,-0.0529,-0.0577,-0.0695,-0.0756,-0.0824,-0.0823,-0.0773,-0.0727,-0.0639,-0.0548,-0.0435,-0.027,-0.0343,-0.0084,-0.0046,-0.0001,0.0208,0.0211,0.0268,0.0265,0.0262,0.0244,0,0,0,0,0]}]]